User: anonymous
Location: Oshawa
(43.9000°N, 78.8670°W)
Time: 16:29:00
(UTC-04:00)
Language:

Cosmos 1805 Rocket - Orbit

View from above orbital plane
View from above orbital plane
View from above satellite
View from above satellite

Ground track
Ground track

The orbit data is extracted from the following two-line orbital elements,

1 17192U 86097B   14209.14937856  .00000298  00000-0  33781-4 0  5024
2 17192 082.5083 166.4431 0016205 343.0595 101.8484 14.82963884492280
Epoch (UTC): 28 July 2014 03:35:06
Eccentricity: 0.0016205
inclination: 82.5083°
perigee height: 608 km
apogee height: 631 km
right ascension of ascending node: 166.4431°
argument of perigee: 343.0595°
revolutions per day: 14.82963884
mean anomaly at epoch: 101.8484°
orbit number at epoch: 49228

The dashed part of the orbit path shows where the satellite is in the earth's shadow,  

DLR